Johnstown, PA

3:58 PM EST on December 06, 2019 (GMT -0500)
Johnstown-Cambria County

Weather History for KJST - October, 2019

Change the Weather History Date:

Tuesday, October 15, 2019

  Actual Average Record
Temperature  
Mean Temperature 51 °F 50 °F  
Max Temperature 63 °F 59 °F 86 °F (1899)
Min Temperature 39 °F 41 °F 27 °F (1957)
Degree Days  
Heating Degree Days 14 15  
Month to date heating degree days 199  
Since 1 July heating degree days 421  
Cooling Degree Days 0 0  
Month to date cooling degree days 0  
Year to date cooling degree days 385  
Growing Degree Days 1 (Base 50)    
Moisture  
Dew Point 37 °F    
Average Humidity 62    
Maximum Humidity 89    
Minimum Humidity 37    
Precipitation  
Precipitation 0.00 in 0.10 in 1.78 in (1942)
Month to date precipitation 1.56  
Year to date precipitation 33.33  
Sea Level Pressure  
Sea Level Pressure 30.08 in    
Wind  
Wind Speed 4 mph ()    
Max Wind Speed 14 mph    
Max Gust Speed 22 mph    
Visibility 10.0 miles    
Events      
T = Trace of Precipitation, MM = Missing Value Source: Averaged Metar Reports

Daily Weather History Graph

Daily Weather History Graph

Search for Another Location

Airport or City:

Astronomy

Oct. 15, 2019 Rise Set
Actual Time 7:25 AM EDT 6:35 PM EDT
Civil Twilight 6:58 AM EDT 7:03 PM EDT
Nautical Twilight 6:26 AM EDT 7:34 PM EDT
Astronomical Twilight 5:55 AM EDT 8:06 PM EDT
Moon 7:54 PM EDT (10/15) 8:54 AM EDT (10/15)
Length of Visible Light 12h 04m
Length of Day
11h 09m
Full, 97% of the Moon is Illuminated
Oct 15
Full
Oct 21
Last Quarter
Oct 27
New
Nov 4
First Quarter
Nov 12
Full

Hourly Weather History & Observations

Time (EDT) Temp. Windchill Dew Point Humidity Pressure Visibility Wind Dir Wind Speed Gust Speed Precip Events Conditions
12:54 AM 44.1 °F 42.5 °F 36.0 °F 73% 30.12 in 10.0 mi ESE 3.5 mph - N/A   Clear
1:54 AM 44.1 °F - 36.0 °F 73% 30.13 in 10.0 mi Calm Calm - N/A   Clear
2:54 AM 43.0 °F - 35.1 °F 74% 30.13 in 10.0 mi Calm Calm - N/A   Clear
3:54 AM 41.0 °F - 35.1 °F 79% 30.14 in 10.0 mi Calm Calm - N/A   Clear
4:54 AM 41.0 °F - 36.0 °F 82% 30.15 in 10.0 mi Calm Calm - N/A   Clear
5:54 AM 42.1 °F 40.2 °F 36.0 °F 79% 30.16 in 10.0 mi WSW 3.5 mph - N/A   Clear
6:54 AM 39.0 °F - 35.1 °F 86% 30.18 in 10.0 mi Calm Calm - N/A   Clear
7:54 AM 39.0 °F 35.7 °F 36.0 °F 89% 30.18 in 10.0 mi SSE 4.6 mph - N/A   Clear
8:54 AM 45.0 °F 43.5 °F 37.9 °F 76% 30.18 in 10.0 mi SSE 3.5 mph - N/A   Clear
9:54 AM 46.9 °F - 39.9 °F 77% 30.18 in 10.0 mi Calm Calm - N/A   Clear
10:54 AM 50.0 °F - 39.9 °F 68% 30.17 in 10.0 mi South 4.6 mph - N/A   Clear
11:54 AM 55.0 °F - 39.0 °F 55% 30.14 in 10.0 mi Variable 4.6 mph - N/A   Clear
12:54 PM 57.9 °F - 39.0 °F 49% 30.12 in 10.0 mi Variable 5.8 mph - N/A   Clear
1:54 PM 60.1 °F - 41.0 °F 49% 30.09 in 10.0 mi South 9.2 mph - N/A   Clear
2:54 PM 61.0 °F - 39.0 °F 44% 30.06 in 10.0 mi SSE 12.7 mph - N/A   Clear
3:54 PM 63.0 °F - 37.0 °F 38% 30.04 in 10.0 mi SSE 11.5 mph - N/A   Clear
4:54 PM 62.1 °F - 35.1 °F 37% 30.01 in 10.0 mi SSE 11.5 mph - N/A   Clear
5:54 PM 60.1 °F - 37.0 °F 42% 30.00 in 10.0 mi SSE 8.1 mph - N/A   Clear
6:54 PM 57.0 °F - 37.9 °F 49% 30.01 in 10.0 mi SSE 10.4 mph - N/A   Clear
7:54 PM 55.9 °F - 37.9 °F 51% 30.00 in 10.0 mi SSE 10.4 mph - N/A   Clear
8:54 PM 55.0 °F - 39.0 °F 55% 29.97 in 10.0 mi SSE 12.7 mph 17.3 mph N/A   Clear
9:54 PM 55.0 °F - 39.0 °F 55% 29.95 in 10.0 mi SSE 13.8 mph 21.9 mph N/A   Clear
10:54 PM 55.0 °F - 37.9 °F 53% 29.95 in 10.0 mi South 12.7 mph - N/A   Clear
11:54 PM 55.0 °F - 37.9 °F 53% 29.92 in 10.0 mi South 9.2 mph - N/A   Clear